Theta_e
352 353 354 355 354 354 353 353 353 352 351 348 344 344 345 345 344 343 344 345 347 347 346 347 346 345 345 343 344 344 343 344 344 343 342 343 345 346 346 346 347 347 348 348 347 347 347 348 348 348 347 347 347 345 341 336 331 327 326 328 330 332 337 338 336 335 337 339 339 339 336 334 333 333 337 339 336 336 335 334 335 335 335 332 329
352 353 354 354 354 354 354 353 354 353 352 350 346 344 344 345 344 343 344 346 346 346 347 348 348 347 345 346 347 348 348 346 345 344 344 345 346 345 345 346 346 346 346 346 347 347 346 346 347 347 347 347 344 338 333 328 325 323 325 329 332 332 335 337 335 335 338 339 338 338 338 337 337 336 337 338 335 334 334 333 333 332 331 329 329
352 354 354 353 353 354 355 355 355 355 354 352 348 345 344 344 344 344 344 346 345 345 347 347 348 347 346 347 348 350 350 348 346 346 346 347 346 344 344 345 345 345 345 345 345 344 342 343 344 346 346 343 338 332 329 325 322 326 329 332 335 335 336 335 334 335 338 339 336 337 338 337 337 338 337 336 334 333 332 331 331 330 327 324 326
354 355 355 353 351 353 355 356 356 356 355 354 352 348 346 345 344 345 345 345 346 346 345 346 348 348 346 347 347 348 350 349 348 348 347 347 346 345 345 346 347 345 345 345 343 339 337 338 340 343 343 340 335 330 328 328 327 331 333 331 333 336 337 336 335 333 335 338 338 338 337 334 336 338 337 336 334 332 331 329 329 328 325 321 323
355 355 355 353 352 351 354 356 356 356 356 355 353 351 348 345 344 344 344 344 345 346 345 345 347 347 346 346 346 346 348 349 350 349 348 346 345 346 347 347 345 343 342 341 338 335 334 335 336 337 339 337 332 327 327 333 335 336 335 333 333 335 336 337 336 333 334 336 336 337 337 336 336 336 335 336 335 332 330 329 328 328 326 321 320
357 356 354 353 352 351 352 354 355 355 355 354 353 352 348 345 345 344 344 343 344 345 346 346 347 348 348 347 347 347 348 348 348 348 347 345 342 344 346 344 341 340 338 337 335 333 332 333 333 334 335 333 329 328 331 335 336 335 335 335 333 333 334 336 336 335 333 331 331 333 334 336 338 336 335 335 334 332 330 329 328 328 327 324 322
357 357 355 353 352 352 352 353 354 354 354 353 353 353 350 346 346 345 345 345 346 346 347 347 348 349 349 348 348 348 348 347 345 343 343 343 341 342 344 342 339 337 336 336 334 332 332 332 332 332 332 330 329 329 331 335 335 333 332 332 332 332 333 335 336 335 334 332 331 331 332 333 335 336 335 335 334 332 331 328 327 327 326 325 325
356 357 356 354 352 352 352 353 354 352 353 354 353 353 350 347 346 347 347 347 348 348 348 348 348 348 348 348 348 349 348 346 343 340 339 342 343 341 342 341 339 336 337 337 334 332 332 331 331 331 330 329 328 329 331 333 332 331 329 329 329 329 332 334 335 336 335 335 333 333 334 333 333 335 333 332 333 333 331 329 327 327 325 325 324
354 356 356 355 354 353 352 352 352 351 353 354 353 351 348 346 346 348 348 348 349 349 349 348 347 347 347 348 349 348 347 346 347 345 342 342 344 344 343 343 341 340 341 340 335 332 332 332 332 331 330 329 330 332 335 333 330 330 331 330 330 331 331 330 332 335 335 335 335 334 335 334 334 335 332 330 332 332 330 329 328 327 327 327 326
353 354 356 355 355 354 352 351 350 350 352 354 352 350 347 345 345 348 348 348 349 348 349 349 347 346 346 348 350 349 346 345 347 349 346 343 344 345 344 344 345 346 346 343 338 334 332 333 332 332 333 334 334 336 337 336 333 332 333 332 332 333 332 328 329 332 332 333 334 333 334 334 333 334 332 331 332 331 330 328 327 327 328 328 328
353 353 354 355 355 354 352 351 350 349 350 352 351 348 346 345 345 347 347 348 348 348 349 348 347 347 346 347 349 348 346 344 345 346 345 344 345 346 346 346 347 348 346 344 342 339 336 334 334 336 338 338 336 335 336 336 335 334 334 331 328 330 331 328 326 327 328 330 331 331 333 334 333 333 332 332 332 331 331 330 328 329 329 328 329
354 353 353 354 355 354 353 351 348 345 344 346 346 344 344 344 345 346 347 348 348 348 348 348 348 347 346 346 348 348 345 344 346 345 344 347 348 348 348 347 347 347 346 345 343 342 340 338 338 339 339 338 336 335 336 336 336 337 334 328 326 327 327 326 326 326 328 331 333 333 333 333 333 333 332 332 332 332 332 330 329 330 330 330 330
354 353 353 353 355 355 354 352 346 340 338 340 341 342 343 343 345 346 346 348 348 348 348 348 347 347 346 346 347 348 346 343 345 345 345 349 349 349 349 347 347 347 347 346 344 343 342 341 339 339 338 337 336 335 335 332 332 335 334 329 330 330 326 324 326 328 329 331 333 334 334 332 332 333 332 332 332 332 332 331 330 330 331 330 330
353 354 353 353 354 354 354 352 347 339 337 338 339 341 342 341 343 345 346 347 348 348 348 347 347 345 346 345 346 350 348 344 344 344 345 347 347 347 348 348 347 347 347 346 343 341 340 341 339 338 336 334 334 335 333 328 326 331 333 332 333 333 329 327 328 329 330 329 331 332 333 333 332 333 332 332 332 333 333 332 332 331 331 331 332
353 354 354 353 353 352 352 350 347 342 340 339 339 340 341 341 342 343 345 346 347 348 348 347 346 344 344 344 345 348 349 346 345 343 344 346 346 344 344 345 345 346 347 345 341 338 337 338 338 337 332 327 331 333 330 326 323 326 332 333 333 333 330 328 329 331 331 330 330 330 330 333 333 333 333 333 333 333 333 332 332 332 332 332 333
354 354 354 354 351 347 347 347 346 344 342 340 340 340 341 341 341 341 344 346 346 348 347 347 346 344 342 341 343 347 350 349 348 346 344 342 342 342 341 343 343 345 347 343 339 336 335 335 335 333 327 323 330 330 326 328 326 324 330 332 333 334 331 328 329 331 332 332 332 331 330 332 333 332 332 332 332 331 331 331 331 332 333 333 333
354 355 355 354 349 343 342 344 344 343 342 342 341 340 340 341 341 340 342 344 345 347 346 346 345 343 341 340 342 347 350 349 348 348 345 338 339 342 341 342 344 347 347 341 338 336 334 334 332 330 326 324 331 330 322 327 329 327 331 332 331 334 333 330 330 331 333 333 333 333 331 331 331 329 328 329 330 328 328 328 328 330 331 332 333
354 355 355 353 347 341 340 341 342 340 340 340 339 339 339 340 340 340 340 342 345 346 346 345 344 343 343 342 344 348 348 346 345 346 344 339 339 340 340 343 344 347 346 340 338 336 333 331 328 328 327 324 330 331 324 324 327 329 333 333 332 333 333 332 331 330 331 332 333 333 332 331 330 329 329 330 330 328 327 327 327 328 329 329 330
353 355 356 356 352 346 342 342 343 341 339 339 339 339 339 340 340 340 339 340 343 344 345 345 344 344 343 343 348 349 345 342 345 345 342 339 338 339 341 343 345 346 345 339 336 335 331 327 323 324 327 325 326 330 329 327 327 329 333 334 333 333 333 332 332 331 331 332 332 332 331 330 329 329 329 330 330 328 327 327 326 326 327 327 327
352 353 355 357 355 352 348 344 344 343 340 339 340 340 340 341 341 340 340 340 341 343 345 345 344 344 344 344 348 348 343 343 345 342 339 337 338 340 341 341 344 345 343 335 330 330 328 325 322 324 330 330 327 327 330 330 328 329 332 333 334 334 333 333 333 332 332 332 332 332 331 330 330 330 329 329 330 328 326 326 326 325 326 326 326
351 353 354 355 353 353 353 351 348 345 342 340 341 342 341 342 341 340 340 340 340 342 343 344 344 344 345 346 346 346 344 343 342 341 340 337 337 340 341 341 342 341 340 335 325 322 322 321 322 326 331 332 329 326 330 333 331 329 330 331 332 334 334 333 333 333 332 332 332 332 331 331 331 330 329 328 329 329 327 327 328 328 328 328 327
352 352 352 353 354 354 356 356 353 350 347 343 343 345 346 345 345 342 341 341 341 341 342 343 344 344 345 345 344 344 343 342 342 340 338 336 337 339 339 339 339 336 337 336 326 319 319 318 321 325 327 330 329 325 327 333 333 331 331 332 333 333 333 333 333 333 333 332 332 332 332 331 330 330 328 327 329 329 329 329 329 329 329 329 327
351 351 351 352 354 354 355 357 356 354 350 347 346 348 349 349 350 349 345 343 342 343 342 341 343 345 345 345 346 345 344 343 342 339 335 335 336 338 338 338 341 339 337 335 328 322 321 320 321 321 321 325 326 323 324 330 332 332 331 331 333 334 334 333 333 333 333 333 333 332 331 330 331 331 328 327 328 328 328 328 327 327 328 327 326
351 350 350 351 353 355 356 357 357 356 353 350 348 350 351 351 352 353 352 348 346 348 346 342 342 343 344 346 346 345 344 340 335 334 335 334 335 339 341 340 342 344 344 340 332 325 324 322 320 319 318 320 321 318 319 327 331 330 326 325 328 331 333 333 333 333 333 333 333 332 331 331 331 331 329 327 327 328 328 328 328 328 329 328 327
353 350 350 352 354 355 356 355 354 353 352 353 351 349 351 352 352 354 355 354 353 354 353 348 342 342 344 344 343 344 346 341 335 334 336 339 344 346 344 342 341 343 344 340 331 323 322 323 322 321 319 318 317 315 316 324 329 326 322 322 323 328 332 332 331 331 330 329 330 330 330 331 330 330 329 329 329 330 329 329 329 330 329 329 328
354 353 353 355 356 355 355 352 350 349 350 351 350 348 350 352 352 354 357 358 358 358 358 356 348 343 343 342 342 345 346 344 343 345 347 348 348 344 338 336 337 338 339 333 326 322 321 321 321 321 319 318 317 315 315 320 324 323 322 323 323 326 330 330 329 330 329 327 326 326 327 328 329 328 328 329 330 330 329 328 328 328 327 328 329
354 355 356 356 355 354 354 350 348 349 348 347 346 346 349 350 350 353 357 360 360 360 360 359 355 350 345 342 343 343 345 347 349 350 351 348 340 334 331 331 330 335 337 331 323 322 321 319 319 319 318 318 317 316 317 319 322 323 324 324 323 324 327 328 328 328 328 329 328 326 325 326 327 327 326 327 329 330 330 328 328 329 329 330 331
355 356 357 356 354 354 353 350 348 348 347 345 344 345 348 348 348 353 358 360 361 361 361 359 357 356 352 348 349 349 351 353 352 351 350 346 337 331 329 328 328 331 335 334 326 322 321 320 319 319 319 317 317 318 318 320 322 323 325 326 325 325 326 327 327 327 326 328 329 329 328 327 329 328 326 326 329 330 330 329 328 328 328 329 330
355 355 354 352 351 352 352 349 347 347 346 345 345 346 349 350 351 353 356 360 361 360 358 357 356 356 355 355 357 357 355 354 353 352 351 350 344 336 328 327 328 327 332 339 336 327 323 321 319 319 319 318 318 318 318 319 321 323 327 327 326 326 328 328 328 328 327 326 327 328 329 328 328 328 326 325 327 328 328 328 327 326 326 328 328
352 353 351 348 347 350 350 347 345 344 345 345 346 347 347 349 350 350 353 358 360 358 355 355 356 355 356 359 359 357 355 354 354 354 354 353 351 347 339 333 330 328 332 340 342 337 328 322 320 320 320 319 318 319 320 320 321 324 327 325 324 326 328 329 329 327 326 327 328 330 331 329 326 326 327 327 327 327 328 327 326 325 326 327 327
350 352 354 350 348 350 347 344 341 341 344 345 344 345 345 347 350 352 352 355 358 358 355 355 357 355 355 359 359 356 355 356 355 355 355 355 354 353 348 342 336 333 333 337 344 344 335 323 321 321 320 319 319 321 323 321 320 324 324 320 320 325 327 329 329 327 325 326 328 331 334 332 328 327 329 329 328 328 329 328 326 325 325 326 325
348 352 354 348 345 345 342 340 340 341 343 343 344 344 343 347 352 354 357 358 358 360 357 353 354 352 355 359 359 356 356 356 356 355 354 354 355 353 350 347 342 337 335 339 345 347 340 327 322 322 321 321 321 323 325 321 319 321 319 317 321 325 326 326 327 327 327 326 327 331 335 334 331 330 331 331 330 330 329 327 326 325 325 325 324
348 350 349 343 341 342 339 338 339 341 342 342 343 344 342 346 352 356 360 360 359 358 354 351 350 351 357 361 358 355 356 356 355 353 353 353 354 353 351 348 345 339 337 340 344 346 342 331 325 324 322 321 322 324 324 321 319 319 317 317 319 322 324 327 327 328 329 328 328 331 333 333 332 332 332 331 331 329 328 327 325 325 325 325 324
353 351 348 344 347 347 344 344 342 341 341 342 343 345 345 348 352 354 356 356 358 357 354 353 352 351 357 360 357 353 355 356 354 353 354 354 354 354 351 348 346 342 339 339 341 344 340 332 327 325 322 322 323 323 322 321 319 318 318 318 318 320 325 329 329 329 329 329 330 332 333 333 331 331 331 331 330 328 327 326 326 326 325 324 324
357 355 351 349 350 349 348 349 350 348 346 346 346 346 344 346 349 349 348 350 353 355 354 353 351 353 357 357 353 352 354 354 354 353 354 353 353 353 351 348 346 344 341 337 335 337 338 333 328 324 322 324 324 323 321 319 319 318 318 319 321 325 329 330 330 331 330 330 332 333 332 331 330 331 331 330 328 326 326 326 326 326 325 324 324
355 354 353 352 351 349 347 349 353 356 354 349 346 345 345 350 353 350 347 348 349 349 350 350 350 355 358 355 350 350 352 353 353 353 353 353 352 352 351 349 347 346 344 338 332 333 336 334 329 325 324 324 324 324 321 319 318 318 319 320 322 325 331 332 332 333 332 332 333 333 331 330 329 330 331 329 327 326 325 325 325 325 325 325 323
350 348 348 350 349 348 347 347 350 354 353 350 348 349 353 357 355 348 344 345 346 345 346 347 348 353 355 350 347 348 350 351 353 352 352 352 352 351 350 349 348 347 345 340 335 335 335 333 330 328 325 323 324 325 322 318 318 318 319 321 322 326 331 333 333 334 333 333 333 332 330 329 330 330 330 327 326 326 325 325 324 324 324 323 323
348 348 348 345 342 344 345 344 344 347 349 350 352 354 354 353 349 344 341 342 343 342 343 346 349 351 349 345 346 348 350 351 352 352 351 350 350 350 349 347 346 345 343 339 337 336 334 331 330 328 325 324 325 325 321 318 319 319 319 320 321 324 328 330 332 333 333 332 332 331 330 329 329 329 328 327 326 325 324 324 323 323 323 322 322
347 349 350 347 344 344 343 341 344 348 350 352 353 351 345 340 341 343 342 340 341 343 343 345 346 346 343 343 345 348 350 352 351 351 350 349 348 348 348 346 345 343 341 339 337 335 332 330 328 325 324 325 325 322 319 318 319 319 319 319 320 321 325 329 333 333 332 331 331 331 330 329 329 328 326 325 325 323 323 323 322 322 323 322 321
351 352 351 347 345 348 349 349 349 349 348 348 346 342 337 335 340 346 347 344 342 343 343 342 342 341 340 342 346 349 352 351 350 349 349 348 347 347 346 345 344 342 340 338 337 335 333 330 327 326 327 327 324 321 319 319 319 319 320 319 320 322 326 331 333 332 331 331 331 331 330 328 327 326 324 323 322 321 321 321 321 322 322 322 321
353 351 348 345 347 350 351 349 345 341 339 339 337 336 336 335 337 343 347 346 342 340 339 338 339 339 341 346 349 350 350 349 347 347 346 346 346 345 345 345 343 340 338 337 335 334 332 330 328 327 329 330 328 325 323 321 319 320 321 321 322 324 328 332 333 332 331 331 331 331 330 326 323 322 321 320 320 320 320 320 320 321 321 320 318
353 351 349 350 350 349 346 341 336 335 336 336 335 334 334 334 335 338 341 340 337 337 337 337 338 340 343 347 349 347 345 344 344 344 344 344 344 344 343 342 340 337 336 335 334 333 332 331 329 329 328 328 327 325 323 320 320 322 326 328 329 330 331 333 332 330 330 330 330 330 328 323 320 319 319 319 319 319 319 320 320 321 320 317 314
352 351 351 350 347 343 340 338 337 337 337 336 336 335 335 336 337 337 337 337 336 335 336 337 340 341 343 344 343 341 341 340 341 343 342 342 343 342 341 339 337 335 335 335 334 333 332 331 330 328 327 325 324 324 322 321 324 328 331 333 333 332 332 330 328 329 330 329 328 326 323 320 318 318 318 319 319 319 319 320 320 319 317 314 311
349 347 345 343 341 340 340 339 338 338 338 337 336 335 336 337 337 336 336 335 334 334 335 337 339 341 342 339 337 339 341 341 340 341 341 340 340 339 338 337 336 335 335 335 334 333 332 331 329 327 324 324 325 325 326 327 330 331 332 332 332 333 331 327 324 326 327 326 324 321 319 318 318 318 319 319 319 319 320 320 319 317 313 310 310
342 340 338 338 338 337 337 337 337 336 336 336 335 334 334 335 337 338 337 335 333 333 332 333 337 340 340 338 336 339 341 340 339 340 339 339 337 336 336 336 335 335 335 334 332 331 331 330 327 326 326 327 328 330 330 330 330 330 331 331 331 330 327 323 321 322 322 320 318 317 317 317 318 318 318 319 319 319 320 318 316 313 310 310 313
333 333 333 334 334 333 333 334 334 333 333 334 334 333 332 334 335 336 335 334 333 332 331 335 339 340 338 338 339 340 340 339 338 338 338 337 336 335 335 335 335 334 333 332 332 332 331 328 325 327 330 331 331 331 330 328 327 328 330 330 329 326 322 319 318 318 317 317 317 317 317 318 318 318 318 318 318 318 318 315 312 311 311 313 314
330 329 330 330 330 330 331 331 331 331 331 330 330 330 329 331 331 331 332 332 331 333 337 341 342 339 338 340 341 340 340 339 338 338 337 336 335 335 335 334 334 333 332 332 333 331 329 327 328 330 331 330 329 328 326 326 327 328 329 329 326 322 319 317 318 318 318 318 318 317 317 317 318 318 318 318 318 317 316 315 313 313 314 314 313
328 328 328 330 330 329 329 329 329 329 328 327 328 328 328 329 328 330 335 336 335 337 341 342 342 340 340 341 341 340 339 339 338 337 336 336 335 334 334 334 334 333 333 333 333 330 329 330 331 330 328 326 326 326 327 328 328 329 329 327 324 320 318 318 320 321 319 318 318 318 319 319 319 318 318 318 318 317 316 315 315 315 314 313 311
328 327 327 328 327 328 328 327 327 327 327 327 328 327 328 330 330 335 341 341 337 339 341 340 341 341 340 340 340 340 338 338 337 336 335 334 334 334 334 334 334 333 333 334 334 333 331 330 328 327 327 329 330 330 330 329 328 329 327 324 321 320 319 319 320 320 318 318 319 320 320 319 319 319 318 318 317 317 316 316 315 315 314 312 311
327 327 327 327 327 326 327 326 326 326 326 326 327 327 330 334 336 339 342 340 338 341 342 340 340 341 340 339 340 339 338 338 338 336 333 331 331 332 333 333 332 330 330 332 334 334 329 326 329 331 331 332 332 332 329 328 328 327 325 321 320 320 320 320 320 319 318 318 320 320 320 319 319 318 318 317 316 316 316 315 315 314 313 312 311
328 328 328 329 328 326 327 327 327 326 326 327 328 329 330 335 338 340 341 339 338 339 341 341 341 340 339 339 339 338 338 338 338 336 332 330 331 332 332 332 331 330 330 331 331 328 324 325 331 334 331 329 330 330 329 329 328 325 323 321 321 320 320 320 320 318 318 319 320 320 319 319 318 317 317 316 316 315 315 315 314 313 312 312 311
Wind_Speed
23 24 25 25 25 25 24 23 23 23 24 26 26 25 25 24 25 24 23 22 22 22 22 21 21 22 22 22 21 21 21 22 21 19 18 18 18 18 17 17 17 17 17 17 18 17 18 18 17 17 17 15 12 9 8 10 12 14 13 12 11 9 7 5 6 6 4 4 3 2 3 3 1 1 1 2 2 2 3 3 2 3 4 4 3
22 23 25 25 26 26 25 25 24 25 26 26 27 27 26 26 26 25 24 23 23 23 23 22 23 23 23 22 21 21 21 22 21 19 19 18 18 18 17 17 17 16 16 16 15 14 14 14 13 13 12 10 8 8 11 13 14 13 10 8 8 7 6 5 6 5 4 3 2 2 2 2 1 2 1 1 2 2 2 2 3 3 4 4 4
22 24 25 27 27 27 26 26 26 26 26 27 28 27 27 27 27 26 25 24 24 24 24 24 23 23 22 21 20 19 19 19 19 19 18 17 17 18 18 17 16 15 15 14 12 11 10 10 10 9 8 8 8 10 12 12 11 8 5 4 4 5 5 5 6 4 3 3 3 3 2 3 3 0 1 1 1 2 2 2 3 3 5 4 5
24 25 26 27 28 28 28 27 27 27 26 27 28 28 29 28 28 27 26 25 24 24 25 24 22 22 22 20 19 18 18 17 16 16 17 16 16 17 17 16 14 12 12 11 10 10 10 10 9 8 8 9 10 11 10 8 7 4 3 3 3 4 5 5 6 4 3 3 3 3 2 4 4 2 2 2 1 1 1 2 2 3 4 4 3
26 27 27 27 29 30 30 29 28 27 27 28 28 29 30 29 28 27 26 26 25 24 24 24 23 23 22 21 20 19 18 17 15 14 15 14 14 14 13 12 12 11 11 11 11 10 10 10 9 9 9 10 11 10 7 5 4 3 3 4 4 4 4 4 6 5 5 4 4 4 4 4 2 0 2 3 2 2 0 1 2 2 3 5 4
27 28 28 28 29 31 31 30 29 28 28 28 28 29 30 30 28 27 27 26 26 25 24 23 23 23 22 21 20 19 18 17 16 15 15 14 13 13 12 11 12 12 12 12 10 8 8 9 8 8 9 10 10 8 5 4 4 4 4 5 5 5 5 4 5 6 6 5 5 5 5 4 3 2 3 3 3 2 3 2 1 1 3 5 6
27 28 28 28 29 31 31 31 31 30 29 29 28 29 30 31 29 28 27 26 26 25 25 24 23 22 22 21 20 19 18 18 18 17 15 14 12 12 12 12 12 12 11 10 8 6 7 7 8 8 8 9 8 7 5 4 5 6 5 5 5 5 4 3 3 5 6 5 5 5 4 4 4 3 3 2 2 3 4 4 2 2 2 3 4
28 27 28 28 29 31 32 32 32 31 30 30 29 30 31 32 30 28 27 27 26 25 25 25 24 23 22 21 20 20 19 19 18 16 14 13 12 12 12 12 12 12 10 9 8 7 8 8 8 9 8 8 8 7 6 6 7 7 6 7 7 6 5 3 3 4 4 4 4 3 3 3 3 2 2 2 3 3 4 4 3 3 3 2 3
29 28 28 29 30 30 31 32 32 32 31 30 31 32 32 33 31 29 28 27 26 26 25 25 25 24 23 22 21 21 20 18 16 15 13 13 13 12 13 13 13 12 11 10 10 9 9 9 9 9 9 8 8 7 7 8 8 7 6 7 6 5 5 4 3 3 2 3 4 2 1 1 2 2 3 3 3 5 5 4 4 5 4 4 3
29 29 28 29 30 30 30 31 31 32 31 30 32 33 33 33 32 30 29 28 27 27 26 26 26 25 25 24 23 22 20 18 17 16 15 15 15 14 16 15 12 10 10 10 11 10 10 10 11 10 9 9 9 8 8 8 8 7 6 6 5 4 4 3 3 3 2 3 3 2 2 2 2 2 3 4 4 5 5 5 6 5 5 5 4
30 30 29 29 29 30 30 30 31 32 32 32 33 34 34 34 33 31 30 29 28 28 27 26 26 26 27 27 25 23 21 19 20 19 17 17 16 15 15 14 10 9 9 10 10 10 11 12 11 10 9 9 10 9 9 8 7 7 7 7 6 5 4 3 3 3 4 4 3 3 3 3 3 3 4 5 5 5 6 7 7 7 7 7 6
29 30 29 29 29 29 30 30 32 33 34 34 35 36 35 35 34 33 31 30 30 29 28 27 27 27 28 28 27 24 22 22 21 21 20 18 15 14 13 11 10 10 10 10 10 10 11 12 11 10 9 9 9 9 9 9 8 7 8 8 7 7 6 5 4 4 4 4 3 4 4 4 4 5 4 5 6 6 7 8 8 8 9 9 7
29 30 30 30 30 30 31 32 35 36 36 37 37 36 36 36 35 34 33 32 31 30 30 29 28 29 29 30 29 25 23 25 24 22 22 19 15 14 13 12 11 10 11 11 10 11 11 10 10 10 10 10 9 9 10 10 10 9 9 8 7 7 7 6 5 5 5 5 5 5 5 5 5 6 6 6 7 8 8 8 9 10 10 11 10
31 31 31 31 32 32 33 35 38 39 39 38 38 37 37 37 36 36 34 32 32 32 31 30 30 31 31 32 31 24 22 25 26 24 24 22 20 18 15 13 11 11 12 11 12 13 12 10 9 10 10 10 9 9 10 11 11 10 9 8 7 8 8 7 7 7 6 6 6 6 6 6 6 7 7 8 8 9 10 10 11 11 12 13 12
31 31 32 33 35 35 36 38 40 42 41 40 39 38 39 39 38 37 36 34 34 33 33 32 32 32 33 34 33 26 22 24 25 26 26 24 22 20 17 15 14 13 12 13 16 16 14 11 10 10 12 12 10 10 10 11 11 11 9 8 8 9 9 9 8 8 8 8 8 8 7 7 8 9 9 10 10 11 11 11 11 12 14 15 14
31 32 33 35 37 40 40 40 41 42 42 42 41 41 40 40 39 38 37 36 35 35 35 34 33 34 34 35 34 28 23 23 23 25 27 26 23 21 18 17 17 15 14 16 18 17 15 13 11 11 13 13 11 10 11 11 11 10 10 9 9 9 10 9 9 9 9 9 9 10 10 9 9 10 11 11 12 12 12 11 12 13 14 16 16
31 33 34 37 40 43 43 43 42 43 43 43 42 42 41 41 40 39 38 37 37 36 36 35 35 35 36 36 36 30 24 23 23 24 25 25 24 21 19 18 18 18 18 18 18 17 15 14 13 13 13 13 12 12 11 12 12 11 10 10 9 9 10 10 10 10 10 10 10 11 12 11 11 12 12 12 12 12 13 13 14 14 14 15 17
30 32 33 38 44 46 45 45 44 44 44 43 43 41 41 41 40 40 39 39 38 38 38 37 37 37 37 37 36 31 28 27 26 25 26 26 26 25 22 20 19 19 19 18 18 17 16 15 14 14 14 13 13 13 12 11 12 11 11 10 10 10 10 10 10 11 11 11 11 11 12 13 13 13 13 12 12 13 14 14 15 14 14 14 15
28 30 31 35 41 45 46 46 44 44 44 43 42 41 40 40 40 40 40 39 39 39 39 38 38 38 38 38 35 30 31 33 29 28 29 28 29 28 25 23 21 20 19 18 18 17 17 17 16 15 15 14 14 14 13 12 12 11 11 10 10 11 11 11 11 12 12 12 12 12 13 14 13 13 14 13 13 13 13 13 14 14 14 14 14
27 29 31 33 37 43 45 46 45 45 45 43 42 41 41 40 39 39 39 39 39 39 40 40 40 39 39 39 37 33 34 34 30 31 33 32 31 29 27 25 22 20 18 18 18 18 18 17 16 16 15 15 15 14 13 13 13 12 11 10 10 11 12 12 12 12 12 12 12 12 13 13 13 14 15 14 13 12 12 13 14 14 14 15 15
27 28 31 33 36 38 39 42 44 44 45 44 43 43 42 40 40 40 40 40 40 40 41 41 41 41 40 40 40 38 36 35 33 33 34 33 33 31 28 26 24 21 20 20 19 18 18 19 18 17 16 16 16 16 15 14 14 14 13 11 12 12 13 13 12 12 12 12 12 12 13 13 13 15 16 14 11 12 13 14 14 14 14 15 16
27 28 29 30 32 32 32 35 39 42 44 45 44 42 41 41 40 40 40 40 40 41 42 42 42 42 41 40 39 39 38 38 37 35 35 35 35 32 30 28 25 23 22 21 20 18 19 20 18 17 17 17 17 17 16 15 15 15 13 12 12 13 14 14 13 12 11 11 11 12 13 13 13 15 15 12 10 12 14 14 14 14 15 16 16
25 26 27 27 27 28 30 33 37 40 43 45 44 42 41 41 40 39 40 41 40 41 42 43 43 42 41 40 40 40 40 40 40 38 36 37 36 33 32 29 24 23 23 22 21 20 20 20 19 17 18 19 18 17 17 17 16 15 15 13 13 13 14 13 13 12 11 11 12 13 13 12 12 14 14 12 12 13 14 15 16 15 16 18 19
22 23 23 23 24 26 30 33 36 38 41 44 44 42 40 39 39 37 37 39 40 40 40 42 43 42 42 41 42 43 42 41 42 40 38 38 36 33 31 27 23 23 24 22 20 21 22 22 20 19 20 19 18 18 18 18 17 17 17 16 15 14 14 13 13 13 12 12 12 13 14 12 12 13 13 13 14 15 16 17 17 17 18 19 20
20 21 22 22 23 27 31 35 37 38 40 42 43 44 41 39 39 36 34 35 37 36 37 40 42 41 41 43 44 44 43 43 43 43 40 34 28 27 27 26 24 25 26 24 22 24 25 24 22 22 22 20 19 19 20 19 18 19 19 18 15 15 15 14 14 14 13 13 14 15 15 13 13 14 14 13 14 16 17 18 19 19 19 20 20
18 20 22 23 24 27 31 35 37 39 39 40 42 44 42 40 39 36 32 31 32 33 33 35 39 42 42 43 44 44 44 44 43 38 32 26 24 27 30 30 30 31 31 29 28 28 29 28 25 23 23 21 20 20 20 20 20 20 20 17 16 15 15 16 15 15 15 15 15 16 15 15 15 15 14 14 15 16 17 19 20 20 21 21 21
16 19 21 23 25 28 31 34 35 37 37 38 40 42 41 41 41 36 31 29 29 30 30 31 35 39 41 43 44 44 44 42 40 37 34 32 33 34 34 34 36 37 36 35 34 33 32 29 26 25 24 21 20 21 19 19 20 21 20 17 16 16 17 17 17 16 16 15 16 16 16 16 16 17 16 16 15 16 17 19 20 20 21 21 20
16 20 23 25 28 29 31 33 34 35 36 36 37 38 39 41 42 37 31 28 27 28 29 32 34 35 39 42 40 39 39 36 37 41 39 34 35 37 38 41 43 44 43 42 42 40 36 31 28 27 25 23 23 22 19 18 19 20 19 18 17 17 18 19 19 18 17 17 17 17 17 17 17 18 18 16 15 16 17 18 20 21 21 21 21
18 22 26 28 30 31 32 33 33 33 35 35 35 36 37 37 38 36 32 27 26 29 32 34 35 36 38 35 30 31 33 33 36 39 34 29 35 43 47 49 50 49 46 43 43 42 36 31 30 29 27 26 26 23 18 18 19 19 19 18 18 18 18 20 21 19 19 19 19 19 18 18 18 19 19 17 17 18 18 19 20 21 22 22 23
20 23 27 30 31 31 32 32 32 32 34 35 35 35 36 36 35 35 33 29 27 30 34 35 35 37 34 26 26 32 34 33 35 36 33 32 37 44 48 52 53 51 47 43 43 43 39 35 33 32 32 30 28 24 21 20 19 18 18 18 19 19 19 20 22 22 21 20 19 19 19 19 19 20 20 20 21 21 21 21 21 21 22 23 24
21 23 26 28 29 30 32 32 31 32 33 34 34 33 33 32 31 31 31 30 28 29 33 34 33 34 29 22 25 32 32 31 32 32 32 32 33 38 44 50 52 50 48 46 44 44 42 39 37 36 36 34 31 27 26 25 23 20 20 19 20 21 20 20 22 23 22 21 20 19 19 21 23 23 23 24 25 26 26 24 22 22 22 23 24
23 24 25 29 31 32 33 32 30 31 33 33 32 30 29 29 28 27 26 25 26 26 29 30 29 30 26 19 21 27 27 28 28 24 23 24 26 30 37 45 51 50 48 47 46 44 43 42 41 40 38 35 32 29 28 28 28 25 23 21 22 23 22 21 22 23 23 22 21 20 20 23 26 27 27 25 25 26 25 23 22 22 22 23 23
24 25 28 32 34 35 34 33 30 30 31 31 31 30 29 29 28 26 24 22 23 24 26 26 25 25 21 17 19 25 25 25 23 18 17 19 21 24 29 38 48 51 50 48 46 46 45 42 41 41 38 35 32 29 28 29 30 28 25 25 26 24 22 23 24 24 24 23 23 23 24 25 27 29 28 24 21 22 22 21 22 22 22 22 24
19 23 27 30 31 32 32 32 30 28 28 29 29 29 29 27 26 25 23 22 21 21 22 21 19 19 17 15 16 20 20 21 20 18 18 19 20 22 25 32 43 50 51 50 47 47 46 42 40 39 35 32 30 27 27 28 28 27 28 28 28 26 24 26 26 26 26 25 26 27 27 26 27 27 26 23 21 19 19 20 21 22 22 23 24
14 18 23 27 29 29 29 28 27 26 27 28 28 28 27 24 22 22 21 21 21 20 19 18 16 15 15 14 14 14 16 19 19 18 20 20 20 21 23 29 38 44 49 52 50 48 46 42 39 35 33 32 28 25 27 28 26 26 29 29 28 27 27 28 28 28 28 27 28 30 28 25 26 27 24 22 20 19 19 21 21 22 24 24 25
14 16 20 24 25 26 28 27 24 23 25 27 26 24 21 18 19 20 19 19 19 18 18 17 15 15 14 12 11 11 13 16 18 19 21 21 20 21 23 29 34 37 44 50 50 48 46 41 36 34 33 32 26 22 27 30 27 28 29 28 27 28 28 28 29 30 30 30 31 32 29 26 25 26 24 21 20 19 21 22 22 22 23 24 25
16 18 21 22 20 22 26 27 25 23 23 22 20 19 19 19 19 20 19 18 18 18 18 17 16 15 13 10 9 10 12 14 16 18 20 21 21 22 25 30 33 35 40 45 44 44 44 39 37 35 32 29 24 23 28 31 29 31 30 26 27 29 29 29 32 32 30 29 29 28 27 25 22 22 23 21 20 21 22 22 22 22 23 24 24
15 16 18 19 19 21 25 26 25 22 20 19 19 20 22 21 20 20 20 20 19 18 17 16 15 14 11 9 9 9 10 12 14 16 17 18 20 21 24 30 35 38 40 41 40 39 38 37 37 35 29 25 24 24 28 30 30 33 32 27 27 28 29 31 34 32 28 28 27 26 25 22 20 21 23 22 22 22 21 20 21 22 23 24 23
15 15 16 18 19 21 22 22 21 21 21 22 22 23 24 24 22 20 20 20 19 17 16 15 14 12 10 8 8 8 10 11 12 14 14 15 18 20 21 25 32 37 39 38 37 37 36 35 34 31 26 24 24 26 29 30 31 33 32 28 27 27 29 33 32 27 27 27 26 25 22 19 20 22 23 22 22 21 20 20 20 20 20 20 21
16 17 19 21 23 23 23 24 25 26 26 25 25 26 26 25 22 19 18 18 18 17 16 15 13 11 8 7 7 8 9 9 10 13 13 13 16 19 19 21 26 33 35 33 31 31 32 31 29 26 24 23 23 26 29 29 30 31 28 26 26 27 31 33 27 25 26 26 23 20 20 19 20 22 22 22 22 21 20 21 21 18 16 18 21
18 20 22 24 24 25 26 29 30 30 29 28 28 27 26 25 23 21 18 16 16 15 14 12 10 9 8 7 7 7 8 9 10 12 12 12 13 14 16 19 23 27 29 28 26 26 27 27 26 24 23 24 24 25 25 26 27 25 23 24 27 29 31 30 26 25 27 26 18 15 18 21 21 21 21 22 21 21 20 21 21 20 19 21 23
19 19 21 23 26 28 31 33 33 32 30 28 27 26 25 23 21 18 16 15 15 14 12 10 9 8 7 7 7 7 7 9 9 9 9 10 11 11 12 15 18 19 20 22 22 22 23 23 23 24 26 26 25 22 21 21 22 21 22 25 27 26 24 23 22 20 20 18 13 12 16 21 21 21 21 21 21 21 21 20 21 21 21 22 22
22 22 23 26 28 29 30 31 30 28 26 24 22 21 20 18 16 15 15 15 14 12 10 8 7 7 6 6 6 6 7 7 6 6 7 7 8 8 9 12 14 16 16 17 18 18 18 19 20 23 25 25 21 18 18 19 20 21 23 23 22 20 18 16 14 13 12 12 12 14 18 21 21 21 22 21 21 21 20 20 20 20 20 21 21
27 28 28 29 30 30 29 28 27 25 22 20 18 17 15 13 13 15 16 15 13 10 8 6 6 6 7 6 5 5 6 5 4 5 5 5 6 7 9 12 15 16 16 15 16 16 17 18 19 20 20 19 17 16 18 20 19 18 18 17 16 16 15 12 10 11 12 13 14 17 20 22 23 23 22 21 21 20 19 19 20 19 19 20 18
33 32 30 29 30 30 29 27 25 22 19 16 15 15 14 12 13 14 15 14 12 9 8 8 9 9 9 8 6 6 6 4 3 4 4 6 8 9 10 12 15 16 16 16 17 17 18 19 18 16 15 16 17 19 20 19 16 15 15 14 13 13 13 11 9 11 14 16 19 21 23 24 24 23 22 21 20 19 18 18 19 18 18 16 14
35 33 30 28 27 26 25 23 21 18 16 15 14 14 15 15 15 14 13 12 11 11 12 12 13 12 10 8 7 7 7 6 5 6 7 8 9 10 10 12 14 15 17 17 17 16 17 18 17 15 16 17 18 18 17 15 15 16 15 14 12 11 10 10 10 13 16 19 21 23 23 23 23 21 21 20 20 20 20 18 17 16 14 12 11
30 30 28 25 23 22 20 19 19 18 17 15 15 13 13 12 11 10 12 14 14 15 15 14 13 11 10 9 8 9 9 8 7 8 9 8 8 10 11 13 15 17 18 17 16 15 16 18 18 18 17 16 16 15 14 15 16 15 14 13 13 11 9 8 10 14 18 20 21 24 24 23 23 22 21 19 18 18 16 14 13 13 11 11 13
23 23 23 21 20 19 18 17 18 17 14 13 12 11 10 10 9 11 15 16 15 15 14 13 12 11 10 10 9 9 9 9 9 9 10 9 9 10 11 13 16 18 17 16 16 17 17 18 17 16 15 14 14 13 13 15 15 13 13 13 11 9 9 9 9 14 19 21 21 22 20 18 17 17 14 12 12 12 11 10 11 11 12 14 16
18 17 17 17 17 18 17 14 12 11 10 10 9 9 10 10 10 11 13 13 14 14 13 12 12 11 11 10 10 9 9 10 11 13 15 15 14 15 15 14 16 18 17 15 14 15 16 15 12 10 11 11 11 12 13 13 14 14 13 12 10 9 11 12 12 15 19 19 16 14 13 11 10 9 8 8 9 11 12 12 12 13 13 13 14
16 14 13 13 14 15 13 10 9 9 9 9 7 8 9 8 9 11 12 13 14 15 14 13 12 12 12 10 10 10 11 11 11 13 16 16 16 17 17 16 15 16 17 16 14 13 14 12 9 8 11 11 11 13 13 13 14 14 14 13 12 12 13 14 15 17 18 16 12 11 12 12 10 9 9 10 11 13 13 13 14 15 15 13 13
12 12 11 11 11 11 10 10 10 10 10 9 7 7 8 8 10 12 14 14 15 16 15 13 13 12 12 11 11 11 12 11 10 11 14 14 13 13 15 15 15 16 17 16 14 13 13 13 12 12 13 13 13 12 12 14 15 15 14 15 15 14 14 15 16 17 17 14 10 10 12 11 10 10 11 12 12 13 14 14 14 14 13 13 12
Wind_Direction
202 200 201 201 202 202 203 204 206 208 212 216 216 215 214 213 214 216 217 217 220 225 226 226 227 229 232 234 236 237 240 243 246 250 251 253 255 257 258 257 257 256 255 256 260 263 263 266 265 261 261 260 257 253 255 266 276 281 280 276 273 271 274 281 291 305 313 302 285 275 294 301 309 340 45 50 2 348 341 343 360 349 348 350 343
200 198 200 201 202 202 203 204 205 207 211 215 217 217 215 216 218 218 219 220 222 225 227 227 228 230 232 233 235 236 240 244 248 249 249 251 256 256 253 252 254 255 258 259 264 267 266 268 268 262 256 248 245 256 271 281 286 286 278 269 267 266 266 270 282 299 313 307 282 240 244 257 277 14 5 344 335 344 1 4 16 1 341 355 14
200 198 199 201 203 203 204 206 207 208 210 214 217 218 217 218 219 221 221 222 224 227 228 229 230 232 234 236 236 236 239 244 248 249 249 249 250 250 249 250 252 254 259 259 261 266 266 267 264 257 246 238 253 275 286 291 290 285 274 259 263 273 281 281 281 285 290 294 269 239 225 260 267 88 270 279 339 347 17 29 36 17 339 351 31
200 199 199 201 203 204 205 206 208 209 210 212 215 216 217 217 218 219 220 222 224 226 227 228 230 233 236 237 238 238 239 243 245 246 246 246 247 249 251 251 252 255 258 256 257 261 261 257 251 248 243 245 267 283 286 288 288 282 274 269 265 274 287 291 288 279 264 263 266 272 274 265 258 189 209 246 262 312 41 41 48 41 345 341 17
201 201 200 201 202 203 205 207 208 208 209 211 213 214 215 215 216 217 218 220 222 224 226 227 229 232 234 236 238 238 238 240 240 240 242 244 246 249 249 250 252 255 254 254 258 258 250 246 245 246 250 261 277 282 274 269 276 271 274 283 278 272 271 281 288 282 266 257 265 283 276 271 284 144 236 244 243 263 358 18 29 38 336 323 325
203 203 203 202 202 203 205 207 207 208 209 211 212 213 215 214 214 214 216 219 221 223 224 225 228 231 231 231 232 233 234 236 236 238 241 242 244 245 244 246 249 252 252 255 259 255 242 238 240 245 255 269 277 274 264 260 267 264 265 274 277 274 264 266 283 285 279 271 264 269 274 295 327 328 283 256 232 240 257 282 335 353 332 336 338
206 206 205 205 204 203 204 206 207 208 209 210 211 212 215 215 214 214 215 218 220 222 223 224 226 228 229 229 229 230 232 234 236 237 238 239 238 238 240 243 245 249 255 260 262 252 238 233 237 246 257 268 268 261 257 255 257 261 263 267 271 273 267 259 268 276 285 286 275 265 265 276 287 302 307 292 257 230 241 265 272 291 327 345 347
207 206 206 205 204 203 204 206 207 209 209 210 211 213 215 216 215 215 216 218 221 222 223 224 225 225 227 228 229 230 232 235 237 236 233 232 231 230 234 239 242 245 247 253 259 252 241 238 240 247 255 259 255 249 248 244 245 252 259 265 268 269 269 266 261 263 277 287 278 261 259 270 277 300 304 298 298 274 248 245 249 284 306 295 323
207 207 206 205 204 204 205 206 209 209 208 209 211 213 216 216 215 215 217 219 222 223 225 226 226 225 226 227 228 230 231 232 233 231 226 225 228 228 231 235 237 241 240 241 249 250 242 239 240 244 247 248 243 237 238 241 240 242 248 258 264 265 266 266 260 255 251 259 260 240 231 280 294 304 297 292 295 282 268 257 259 279 279 269 305
207 208 207 206 204 203 204 206 209 210 209 210 213 215 217 217 216 216 218 220 223 225 226 227 227 226 226 226 228 229 228 227 227 227 225 225 227 226 233 237 235 237 237 236 241 245 243 240 241 242 239 239 234 224 224 231 235 236 239 248 253 252 258 266 264 255 234 228 241 234 205 228 248 273 286 281 277 276 277 277 277 281 279 279 284
205 207 207 207 206 204 204 204 207 210 210 211 214 216 218 218 218 218 219 221 224 226 227 227 227 227 227 227 229 229 227 225 226 227 225 225 226 226 232 236 233 233 236 239 240 238 239 239 236 234 231 232 231 222 218 222 230 237 237 241 248 249 251 261 257 245 239 226 227 240 223 217 242 251 259 264 267 272 277 282 286 291 295 292 275
202 204 205 205 204 203 203 203 207 212 212 214 217 219 219 219 220 221 221 222 225 227 227 227 226 227 229 229 230 229 225 226 227 228 227 227 226 225 229 231 233 233 232 238 238 228 229 232 226 225 227 227 227 222 218 217 217 226 231 232 237 239 239 246 243 232 238 230 217 233 234 229 242 246 251 259 261 266 274 282 290 294 295 291 282
200 201 202 203 202 202 201 203 210 215 216 217 219 220 220 220 221 222 222 222 225 227 227 226 226 227 229 230 233 231 226 226 228 230 231 231 228 226 228 233 236 236 230 231 231 221 220 225 222 222 225 224 223 219 219 218 213 215 221 221 220 226 231 236 237 231 236 234 222 228 237 243 249 250 256 259 260 266 272 279 289 295 294 293 290
199 199 200 201 201 201 201 206 212 217 218 219 220 220 221 222 221 222 222 222 225 227 227 227 226 226 228 231 235 233 227 226 227 229 231 233 234 232 230 233 238 240 235 235 242 235 225 223 222 221 224 224 221 218 219 221 217 213 215 213 212 223 229 230 235 236 240 242 237 238 243 248 254 257 260 261 264 270 277 284 291 295 295 295 293
198 197 199 201 203 206 209 212 216 218 218 219 221 220 222 223 222 221 221 221 224 227 228 228 227 228 229 232 234 231 229 229 227 228 230 232 234 233 231 235 240 241 237 247 257 251 238 229 223 222 230 231 223 218 220 222 220 215 212 212 214 224 233 236 241 243 247 251 250 252 255 255 260 264 266 267 269 271 274 278 285 293 296 297 297
199 198 199 200 207 214 217 217 219 220 219 219 221 221 221 223 223 222 221 221 224 226 227 228 229 229 230 232 234 230 227 230 230 231 232 233 234 234 235 238 242 245 249 257 260 254 246 239 231 231 238 234 224 221 220 219 222 219 215 217 217 225 240 246 250 252 254 259 261 266 268 263 263 270 274 276 278 279 279 280 283 287 291 295 297
200 200 198 201 210 218 219 219 220 220 220 219 220 221 221 222 223 222 221 221 224 226 227 228 228 230 231 232 234 232 228 228 231 234 234 234 236 237 237 237 243 251 258 260 257 252 248 244 239 238 238 231 223 225 225 219 222 222 220 226 223 226 242 250 253 255 257 259 262 269 275 275 273 276 280 282 283 286 289 289 289 288 288 290 294
201 201 200 204 213 217 218 219 220 220 220 219 219 220 221 221 222 222 221 220 222 225 227 227 228 229 230 233 235 232 231 234 235 236 236 235 238 241 239 237 244 253 257 257 254 250 249 247 244 239 237 232 222 224 231 225 223 222 219 229 231 228 239 249 254 258 260 262 262 263 271 275 277 279 282 283 284 289 293 294 294 292 288 287 290
202 202 201 204 210 215 217 217 218 219 219 219 219 220 221 222 222 223 222 220 220 224 227 228 229 230 231 234 234 231 235 241 239 238 240 239 240 243 242 241 247 253 255 255 252 250 250 250 249 243 238 235 225 222 228 227 224 224 221 229 238 237 240 246 251 258 262 262 263 264 267 271 275 278 279 278 279 286 292 293 293 293 289 287 288
201 201 202 204 209 213 216 216 216 218 220 219 220 221 222 222 223 223 223 223 222 224 227 229 230 231 232 234 235 235 239 240 238 241 243 242 242 243 242 243 246 249 252 253 251 250 251 252 251 245 236 232 229 223 224 228 229 229 226 228 238 244 246 247 247 251 254 255 258 260 262 265 270 272 273 275 278 285 289 290 291 290 288 287 286
200 201 203 206 210 211 210 212 214 216 219 219 220 222 222 223 224 223 223 224 224 224 227 230 231 232 234 235 236 238 239 238 239 242 243 243 244 243 242 241 241 244 247 247 247 247 253 255 249 243 236 232 233 228 222 225 230 233 235 236 239 242 244 247 246 245 245 247 250 253 256 260 264 267 271 275 279 283 288 289 288 286 284 283 282
200 203 205 206 209 207 202 205 208 212 217 219 219 220 221 222 223 224 225 225 226 226 227 229 231 233 235 236 239 239 239 240 242 240 240 242 243 242 242 239 239 242 245 247 248 248 252 251 243 244 247 240 238 236 227 223 228 234 237 240 243 245 246 246 247 246 244 244 248 253 258 260 264 268 272 275 273 278 284 286 284 281 280 281 282
204 205 207 205 205 204 199 200 203 207 213 218 218 217 218 221 221 222 225 226 226 228 229 231 232 234 236 237 240 241 240 241 242 240 240 242 241 241 241 239 239 243 247 250 250 248 247 243 241 252 257 247 241 241 235 227 229 235 238 239 241 244 247 247 246 247 246 248 254 259 262 264 265 268 273 276 278 284 290 292 292 290 287 290 293
208 208 208 204 200 198 196 197 202 205 209 215 218 217 216 218 219 219 222 225 227 227 230 233 234 234 237 238 239 241 241 241 241 242 242 242 242 243 242 241 243 249 254 255 251 250 245 240 247 257 253 245 242 243 240 232 231 240 245 246 244 243 245 245 246 247 247 250 256 259 261 262 261 263 269 279 288 296 301 300 299 297 293 294 297
208 206 203 198 194 193 194 199 206 209 211 213 217 219 217 217 218 217 216 221 224 223 225 233 237 237 238 239 240 242 243 242 242 244 245 243 239 240 243 245 247 250 253 252 251 252 247 241 248 254 248 244 243 242 240 234 235 246 252 253 251 246 244 245 246 248 249 251 253 255 258 259 258 260 267 278 288 296 302 303 301 299 296 295 296
205 202 198 192 190 195 198 204 211 213 214 214 217 220 219 218 219 216 213 215 218 219 219 226 236 240 240 241 241 242 244 246 246 245 240 234 231 238 245 247 246 248 248 246 244 245 245 245 246 244 242 243 240 236 235 235 240 250 254 255 255 250 245 246 247 248 252 254 255 256 257 256 257 262 268 277 285 292 299 304 305 304 303 301 297
201 195 195 192 195 201 204 209 213 214 215 217 219 221 219 220 222 218 212 210 211 214 213 218 230 238 241 244 244 246 246 245 246 243 235 233 238 242 245 246 247 247 244 243 242 239 240 245 243 235 234 234 231 230 232 235 241 249 253 254 257 255 251 250 250 250 252 255 259 259 259 258 259 264 272 279 287 294 299 303 304 303 302 298 292
196 194 197 197 200 204 206 211 215 215 217 219 220 221 220 222 224 219 212 209 209 211 213 219 227 232 240 244 244 245 242 237 241 240 233 235 243 245 244 244 243 242 240 240 241 238 237 239 237 232 229 227 225 223 223 229 238 246 251 255 259 261 259 257 257 256 255 255 258 258 259 260 261 266 275 282 286 292 297 300 300 300 299 295 292
198 201 204 205 207 208 210 213 215 215 218 218 218 219 219 220 222 221 216 209 209 215 220 226 230 232 237 240 237 236 236 238 244 241 231 235 244 243 241 241 241 241 240 239 239 239 238 238 236 230 225 223 219 212 211 223 231 240 250 256 262 265 264 263 263 262 259 257 257 258 259 260 260 265 274 280 282 286 291 294 296 297 296 295 294
207 210 210 211 211 211 212 214 216 217 217 217 216 216 217 219 221 224 222 214 213 223 229 231 232 235 237 235 235 240 242 248 251 247 245 250 249 242 239 240 242 243 241 239 240 240 238 237 236 229 222 218 212 210 217 221 223 235 246 251 259 264 263 264 264 263 261 258 259 262 265 267 268 270 273 277 279 282 286 290 292 292 291 291 293
213 215 212 211 210 211 215 216 217 217 215 214 214 213 215 217 218 221 223 220 216 222 232 233 234 240 240 234 242 249 248 250 254 254 258 262 258 251 244 240 241 241 240 239 239 239 237 236 236 230 223 217 211 215 224 217 212 225 237 243 254 261 263 263 264 264 261 258 261 265 266 271 276 278 278 279 280 282 284 284 286 288 289 290 291
219 215 211 212 212 213 216 216 215 215 214 212 210 209 210 211 212 213 215 216 213 216 230 238 241 247 243 229 244 255 249 249 257 261 263 266 264 258 248 241 239 239 239 238 237 237 237 237 234 228 223 219 215 221 226 217 212 221 228 235 248 256 260 263 265 265 263 261 264 266 265 271 281 286 287 285 282 282 281 279 281 285 287 288 289
222 217 216 217 216 215 216 215 212 212 213 211 209 209 210 208 207 207 202 204 211 218 233 243 245 248 239 222 244 258 251 251 259 262 262 265 265 259 250 243 241 240 239 238 238 237 236 234 229 224 223 221 218 223 224 216 216 221 221 229 243 252 260 265 266 266 265 265 267 269 271 277 284 290 291 288 282 278 278 279 283 287 289 290 291
220 219 222 221 215 213 214 213 211 210 211 212 210 210 212 208 207 208 207 208 215 220 229 237 239 241 232 220 239 254 252 253 259 260 258 260 261 259 254 246 243 242 240 239 238 238 236 232 226 224 224 219 214 217 216 212 217 220 217 225 240 251 260 264 264 264 265 266 268 270 274 280 286 289 288 284 281 278 279 282 286 289 291 292 293
219 216 219 220 215 211 211 211 207 206 207 208 208 211 213 211 209 212 214 214 214 216 221 226 228 228 221 218 230 242 247 252 257 260 260 259 257 259 256 246 243 243 242 241 241 240 238 232 225 223 223 215 211 214 213 215 220 217 215 224 237 250 260 261 262 264 265 266 268 270 274 281 287 287 282 278 279 279 279 282 285 287 288 289 291
225 220 216 213 210 208 210 209 201 194 199 204 206 208 205 199 199 202 203 203 205 208 212 216 216 212 205 206 219 231 240 249 255 259 260 260 258 257 253 247 245 246 244 243 242 240 238 230 220 219 219 215 218 222 218 219 220 215 218 229 238 250 261 262 262 264 264 266 269 273 280 287 288 283 277 276 280 281 281 284 286 288 289 291 292
224 229 226 220 214 208 208 208 199 193 196 199 196 191 185 181 186 188 186 187 192 195 198 204 206 203 197 195 207 223 235 244 250 253 256 260 259 256 252 247 247 248 245 240 238 237 235 226 218 217 216 218 230 234 222 219 217 217 225 236 242 252 265 268 268 269 267 269 272 277 285 289 283 275 276 281 284 283 284 287 288 290 292 292 293
207 215 221 222 219 214 214 213 207 198 192 186 178 175 174 173 175 176 176 179 183 184 188 193 195 193 192 192 202 218 230 238 242 243 247 252 252 256 256 249 246 246 242 235 232 231 228 222 218 217 217 226 240 236 221 217 218 220 229 240 246 252 263 272 276 275 270 267 271 281 289 287 276 273 279 284 286 285 288 290 290 292 292 292 294
188 188 195 200 201 202 204 202 193 182 177 173 169 168 168 167 168 171 174 175 177 178 180 184 184 185 186 186 193 211 221 225 230 235 238 239 245 256 262 254 248 244 238 232 229 227 223 217 214 216 224 236 238 228 219 218 220 224 233 244 248 252 266 278 279 271 268 272 277 284 287 278 271 275 281 284 285 288 290 291 290 290 289 289 293
164 168 179 185 183 177 174 171 169 169 169 167 164 164 164 164 164 166 170 172 174 174 175 176 174 174 176 179 188 204 211 213 221 231 236 240 248 258 264 260 250 242 237 233 228 224 221 215 212 218 227 230 224 219 220 220 222 229 240 248 248 256 273 281 273 262 271 283 286 283 279 274 272 277 282 285 288 290 291 291 289 287 286 289 292
154 166 174 175 169 163 160 161 161 162 163 163 163 161 161 163 164 165 167 168 168 167 167 166 163 162 169 179 186 194 203 213 223 231 238 245 253 260 267 262 247 235 233 231 224 222 221 218 218 224 224 220 219 222 226 226 228 236 248 252 254 262 273 276 272 270 277 280 276 267 270 278 283 285 287 290 292 292 291 289 287 286 287 290 292
147 157 158 155 155 158 158 156 155 157 160 161 160 158 157 160 161 159 157 156 155 157 159 159 160 164 168 176 183 190 208 226 232 232 237 244 249 258 264 254 234 219 220 222 219 219 220 217 222 227 221 218 222 227 231 231 232 243 254 256 259 265 271 275 279 282 276 268 258 252 265 279 288 291 293 293 292 292 291 288 288 289 290 291 290
128 132 135 138 143 146 147 147 149 153 155 152 151 150 149 151 151 150 152 153 152 155 159 161 167 174 177 180 187 197 219 239 237 222 225 232 237 243 237 218 202 197 204 210 210 211 210 210 219 224 219 218 225 231 233 234 240 249 255 256 259 266 272 274 277 276 268 260 260 265 276 288 294 294 294 293 292 292 291 288 289 290 288 287 287
119 123 128 130 128 127 128 132 135 136 135 134 137 139 137 141 150 153 156 158 158 159 166 174 182 191 191 192 196 197 210 230 217 197 207 206 196 197 193 187 188 193 198 201 201 201 200 200 205 209 210 215 226 234 236 239 245 250 251 253 259 264 267 265 257 255 260 266 274 283 292 297 296 294 293 292 291 291 290 290 291 288 285 287 290
116 120 123 123 120 118 118 119 120 124 127 130 140 149 152 153 156 154 154 158 163 171 186 193 194 196 192 190 195 194 190 197 189 173 175 172 170 173 178 184 191 195 196 197 199 201 200 198 197 202 213 222 229 234 237 240 248 253 252 251 249 247 250 254 251 256 270 282 290 294 294 292 291 290 290 291 290 290 289 288 284 282 287 293 293
113 115 117 120 119 119 119 117 119 128 135 136 142 152 155 154 154 156 162 172 183 192 198 196 192 190 182 176 181 179 172 171 164 153 156 166 169 172 180 186 189 192 197 199 200 203 203 201 205 220 231 230 227 228 232 241 252 257 254 245 237 231 239 255 266 275 285 292 294 292 289 288 288 288 290 291 291 289 287 283 282 285 292 297 291
110 110 113 117 118 120 125 129 131 133 135 137 139 141 144 146 152 168 184 191 190 188 187 185 182 176 168 164 167 166 162 160 157 153 159 165 168 174 184 190 190 193 199 201 198 200 205 211 222 229 225 221 220 224 236 246 248 245 238 231 228 232 247 271 283 287 291 293 291 288 287 285 285 286 287 286 287 287 286 286 290 291 287 285 288
111 114 117 119 122 126 131 138 142 143 146 152 154 158 166 174 185 193 191 185 180 176 176 174 167 158 155 157 159 162 161 157 157 162 164 164 168 177 186 194 197 198 201 202 200 206 216 223 225 220 214 220 229 233 238 242 235 226 220 219 222 236 259 274 277 281 288 291 289 288 287 285 283 285 285 281 282 286 288 289 290 282 276 285 296
113 118 120 122 130 137 140 145 153 160 168 172 176 188 195 195 193 189 182 175 170 169 168 165 155 149 152 156 155 158 163 161 165 175 177 175 178 183 186 196 201 198 196 196 199 211 221 220 217 217 222 229 232 230 230 231 225 219 215 214 219 238 260 270 273 278 283 284 282 285 289 287 282 281 280 276 277 282 284 286 288 284 281 286 294
118 123 125 130 141 150 155 163 168 170 174 178 184 194 192 182 176 174 172 171 167 160 156 154 148 146 150 151 151 160 167 165 169 181 182 176 176 181 186 194 196 193 196 204 208 214 217 209 204 222 229 221 219 227 229 220 213 213 215 222 233 244 259 273 281 282 280 274 268 271 279 279 277 278 278 276 276 281 281 280 285 288 284 282 285
119 127 130 134 144 153 161 164 158 158 166 173 181 188 183 172 169 166 163 162 159 154 150 147 145 150 154 150 153 168 172 167 168 174 174 171 174 183 192 198 200 202 208 213 215 220 221 208 199 207 214 213 216 222 217 208 210 218 225 234 243 253 266 278 283 281 275 268 261 266 270 269 269 273 276 277 280 283 282 281 284 284 280 281 287